CW8095 Weather Reports


Display with metric or nautical units.
time (UTC)temp
F
wind
direction
speed
MPH
gust
MPH
rain 1hr
in
rain 24hr
in
rain mn
in
humidity
%
barometer
mb
20260905064547 76 178 1.0 3.0 0.00 0.00 0.00 61 1013.8
20260905063533 76 171 2.0 4.0 0.00 0.00 0.00 61 1013.8
20260905062540 76 174 2.0 4.0 0.00 0.00 0.00 60 1013.9
20260905061531 77 171 2.0 6.0 0.00 0.00 0.00 60 1013.9
20260905060554 77 174 2.0 6.0 0.00 0.00 0.00 59 1013.8
20260905055534 77 168 1.0 3.0 0.00 0.00 0.00 59 1013.8
20260905054517 77 168 2.0 6.0 0.00 0.00 0.00 58 1013.7
20260905053531 78 167 2.0 4.0 0.00 0.00 0.00 58 1013.7
20260905052527 78 158 1.0 4.0 0.00 0.00 0.00 57 1013.6
20260905051523 78 172 1.0 2.0 0.00 0.00 0.00 56 1013.5
20260905050552 78 165 2.0 6.0 0.00 0.00 0.00 56 1013.5
20260905045530 79 167 3.0 7.0 0.00 0.00 0.00 55 1013.4
20260905044530 79 161 2.0 6.0 0.00 0.00 0.00 54 1013.5
20260905043543 79 170 2.0 4.0 0.00 0.00 0.00 53 1013.5
20260905042519 80 170 4.0 7.0 0.00 0.00 0.00 53 1013.5
20260905041521 80 155 3.0 8.0 0.00 0.00 0.00 52 1013.4
20260905040539 80 171 4.0 9.0 0.00 0.00 0.00 52 1013.5
20260905035530 81 164 3.0 10.0 0.00 0.00 0.00 51 1013.6
20260905034524 81 157 2.0 7.0 0.00 0.00 0.00 50 1013.5
20260905033520 81 172 3.0 8.0 0.00 0.00 0.00 50 1013.6
20260905032517 82 161 3.0 8.0 0.00 0.00 0.00 49 1013.5
20260905031530 82 152 4.0 13.0 0.00 0.00 0.00 49 1013.5
20260905030517 82 169 3.0 7.0 0.00 0.00 0.00 48 1013.4
20260905025528 83 149 3.0 7.0 0.00 0.00 0.00 47 1013.2
20260905024544 83 157 3.0 11.0 0.00 0.00 0.00 47 1013.1
20260905023519 83 140 2.0 7.0 0.00 0.00 0.00 46 1013.0
20260905022530 84 125 3.0 9.0 0.00 0.00 0.00 45 1012.7
20260905021525 84 145 4.0 8.0 0.00 0.00 0.00 43 1012.5
20260905020520 84 135 3.0 6.0 0.00 0.00 0.00 41 1012.3
20260905015516 85 132 3.0 8.0 0.00 0.00 0.00 40 1012.2
20260905014526 85 135 3.0 7.0 0.00 0.00 0.00 39 1012.1
20260905013522 86 139 2.0 4.0 0.00 0.00 0.00 38 1011.8
20260905012517 86 129 2.0 6.0 0.00 0.00 0.00 38 1011.8
20260905011528 86 148 3.0 6.0 0.00 0.00 0.00 38 1011.7
20260905010523 87 144 3.0 8.0 0.00 0.00 0.00 39 1011.7
20260905005518 87 158 3.0 8.0 0.00 0.00 0.00 38 1011.5
20260905004529 88 143 3.0 11.0 0.00 0.00 0.00 38 1011.5
20260905003524 89 151 4.0 10.0 0.00 0.00 0.00 37 1011.2
20260905002540 90 144 3.0 7.0 0.00 0.00 0.00 37 1011.2
20260905001535 91 137 3.0 7.0 0.00 0.00 0.00 36 1011.2
20260905000526 91 139 3.0 9.0 0.00 0.00 0.00 35 1011.0
20260904235521 91 143 4.0 8.0 0.00 0.00 0.00 35 1011.1
20260904234517 92 140 5.0 14.0 0.00 0.00 0.00 34 1011.0
20260904233527 92 124 4.0 9.0 0.00 0.00 0.00 34 1011.0
20260904232523 93 143 3.0 8.0 0.00 0.00 0.00 33 1011.0
20260904231518 93 138 5.0 11.0 0.00 0.00 0.00 33 1011.0
20260904230549 94 128 5.0 11.0 0.00 0.00 0.00 32 1010.9
20260904225525 95 119 6.0 10.0 0.00 0.00 0.00 31 1011.0
20260904224520 95 144 2.0 10.0 0.00 0.00 0.00 30 1011.0
20260904223515 95 144 3.0 10.0 0.00 0.00 0.00 30 1011.1
20260904222526 94 159 3.0 9.0 0.00 0.00 0.00 31 1011.2
20260904221521 94 161 2.0 6.0 0.00 0.00 0.00 31 1011.1
20260904220517 96 143 3.0 9.0 0.00 0.00 0.00 29 1011.2
20260904215528 97 158 3.0 8.0 0.00 0.00 0.00 28 1011.2
20260904214523 97 133 4.0 9.0 0.00 0.00 0.00 28 1011.4
20260904213519 97 145 3.0 4.0 0.00 0.00 0.00 27 1011.5
20260904212529 97 110 6.0 11.0 0.00 0.00 0.00 27 1011.6
20260904211525 96 156 4.0 11.0 0.00 0.00 0.00 29 1011.7
20260904210520 97 155 3.0 9.0 0.00 0.00 0.00 29 1011.8
20260904205516 97 130 3.0 10.0 0.00 0.00 0.00 29 1012.0
20260904204527 96 141 5.0 11.0 0.00 0.00 0.00 29 1012.1
20260904203522 98 145 5.0 10.0 0.00 0.00 0.00 28 1012.2
20260904202518 98 122 4.0 11.0 0.00 0.00 0.00 27 1012.3
20260904201608 97 157 3.0 7.0 0.00 0.00 0.00 29 1012.3
20260904200544 96 114 3.0 8.0 0.00 0.00 0.00 31 1012.5
20260904195539 94 172 4.0 13.0 0.00 0.00 0.00 32 1012.8
20260904194549 95 155 3.0 9.0 0.00 0.00 0.00 31 1013.0
20260904193525 96 144 2.0 6.0 0.00 0.00 0.00 31 1013.1
20260904192521 95 138 3.0 9.0 0.00 0.00 0.00 32 1013.3
20260904191516 96 173 2.0 6.0 0.00 0.00 0.00 31 1013.2
20260904190527 96 168 5.0 9.0 0.00 0.00 0.00 31 1013.4
20260904185522 95 156 3.0 11.0 0.00 0.00 0.00 32 1013.5
20260904184518 94 123 3.0 8.0 0.00 0.00 0.00 33 1013.7
20260904183528 94 151 4.0 9.0 0.00 0.00 0.00 33 1013.8
20260904182524 94 151 3.0 9.0 0.00 0.00 0.00 35 1014.0
20260904181519 92 164 2.0 6.0 0.00 0.00 0.00 37 1014.1
20260904180530 92 188 3.0 10.0 0.00 0.00 0.00 39 1014.2
20260904175525 92 168 3.0 7.0 0.00 0.00 0.00 38 1014.4
20260904174521 93 161 2.0 7.0 0.00 0.00 0.00 37 1014.4
20260904173516 94 137 5.0 10.0 0.00 0.00 0.00 35 1014.5
20260904172527 93 175 2.0 8.0 0.00 0.00 0.00 38 1014.7
20260904171523 92 165 3.0 8.0 0.00 0.00 0.00 40 1014.8
20260904170518 91 154 1.0 7.0 0.00 0.00 0.00 41 1014.9
20260904165528 92 154 3.0 9.0 0.00 0.00 0.00 40 1015.0
20260904164524 91 148 3.0 11.0 0.00 0.00 0.00 41 1015.0
20260904163519 90 137 3.0 7.0 0.00 0.00 0.00 42 1015.1
20260904162515 89 146 3.0 10.0 0.00 0.00 0.00 44 1014.9
20260904161526 89 143 3.0 8.0 0.00 0.00 0.00 46 1014.9
20260904160541 88 166 4.0 10.0 0.00 0.00 0.00 47 1014.9
20260904155517 87 165 3.0 8.0 0.00 0.00 0.00 49 1015.1
20260904154528 86 177 3.0 7.0 0.00 0.00 0.00 52 1014.9
20260904153524 84 139 5.0 13.0 0.00 0.00 0.00 56 1015.0
20260904152559 84 173 4.0 9.0 0.00 0.00 0.00 57 1015.0
20260904151515 83 137 3.0 10.0 0.00 0.00 0.00 59 1014.9
20260904150526 82 156 4.0 13.0 0.00 0.00 0.00 60 1015.0
20260904145522 81 162 3.0 8.0 0.00 0.00 0.00 62 1015.0
20260904144518 81 144 3.0 6.0 0.00 0.00 0.00 62 1015.0
20260904143528 80 159 3.0 8.0 0.00 0.00 0.00 64 1014.9
20260904142544 79 156 3.0 7.0 0.00 0.00 0.00 66 1014.9
20260904141520 79 149 3.0 9.0 0.00 0.00 0.00 67 1015.0
20260904140515 79 163 3.0 9.0 0.00 0.00 0.00 67 1015.0
20260904135526 78 140 2.0 7.0 0.00 0.00 0.00 70 1014.9
20260904134522 77 161 2.0 7.0 0.00 0.00 0.00 71 1014.9
20260904133518 75 158 2.0 6.0 0.00 0.00 0.00 74 1014.6
20260904132529 74 128 4.0 8.0 0.00 0.00 0.00 75 1014.7
20260904131544 73 124 4.0 8.0 0.00 0.00 0.00 76 1014.5
20260904130540 72 95 2.0 4.0 0.00 0.00 0.00 78 1014.5
20260904125516 72 154 2.0 6.0 0.00 0.00 0.00 78 1014.3
20260904124547 72 130 3.0 6.0 0.00 0.00 0.00 79 1014.2
20260904123522 71 123 3.0 6.0 0.00 0.00 0.00 79 1014.1
20260904122538 71 141 2.0 7.0 0.00 0.00 0.00 80 1014.1
20260904121529 71 139 3.0 7.0 0.00 0.00 0.00 79 1013.9
20260904120525 71 122 3.0 8.0 0.00 0.00 0.00 79 1013.8
20260904115521 71 156 2.0 4.0 0.00 0.00 0.00 79 1013.7
20260904114516 71 131 2.0 3.0 0.00 0.00 0.00 79 1013.7
20260904113546 71 132 3.0 6.0 0.00 0.00 0.00 79 1013.7
20260904112521 71 119 3.0 6.0 0.00 0.00 0.00 78 1013.7
20260904111517 71 126 2.0 7.0 0.00 0.00 0.00 78 1013.5
20260904110528 71 141 2.0 4.0 0.00 0.00 0.00 78 1013.6
20260904105524 71 114 2.0 3.0 0.00 0.00 0.00 78 1013.6
20260904104519 71 143 1.0 2.0 0.00 0.00 0.00 78 1013.5
20260904103535 71 138 1.0 2.0 0.00 0.00 0.00 78 1013.3
20260904102526 71 134 0.0 1.0 0.00 0.00 0.00 78 1013.2
20260904101522 71 134 0.0 2.0 0.00 0.00 0.00 78 1013.2
20260904100518 71 134 0.0 2.0 0.00 0.00 0.00 77 1013.2
20260904095529 72 138 3.0 6.0 0.00 0.00 0.00 77 1013.2
20260904094544 72 114 2.0 4.0 0.00 0.00 0.00 77 1013.2
20260904093520 72 134 2.0 7.0 0.00 0.00 0.00 77 1013.2
20260904092516 72 131 2.0 6.0 0.00 0.00 0.00 77 1013.1
20260904091527 72 145 1.0 6.0 0.00 0.00 0.00 77 1013.2
20260904090522 72 143 2.0 8.0 0.00 0.00 0.00 76 1013.1
20260904085518 72 152 2.0 7.0 0.00 0.00 0.00 76 1013.1
20260904084529 72 161 3.0 7.0 0.00 0.00 0.00 76 1013.2
20260904083525 72 169 5.0 7.0 0.00 0.00 0.00 76 1013.3
20260904082525 72 150 3.0 9.0 0.00 0.00 0.00 76 1013.0
20260904082028 72 150 3.0 10.0 0.00 0.00 0.00 76 1013.0
20260904081043 72 147 2.0 7.0 0.00 0.00 0.00 76 1013.0
20260904080019 72 135 2.0 7.0 0.00 0.00 0.00 76 1013.0
20260904075025 72 151 2.0 6.0 0.00 0.00 0.00 76 1013.0
20260904074046 72 162 3.0 6.0 0.00 0.00 0.00 75 1013.2
20260904073024 72 119 1.0 3.0 0.00 0.00 0.00 75 1013.2
20260904072020 72 130 1.0 4.0 0.00 0.00 0.00 75 1013.3
20260904071018 72 155 2.0 8.0 0.00 0.00 0.00 75 1013.5
20260904070030 72 135 2.0 7.0 0.00 0.00 0.00 75 1013.4
20260904065021 72 139 2.0 4.0 0.00 0.00 0.00 74 1013.5